Year,Month,Day,Hour,Minute,Value (Times are PST for temperature in C)
2011,03,28,00,00,4.40
2011,03,28,00,01,4.40
2011,03,28,00,02,4.40
2011,03,28,00,03,4.40
2011,03,28,00,04,4.40
2011,03,28,00,05,4.40
2011,03,28,00,06,4.30
2011,03,28,00,07,4.30
2011,03,28,00,08,4.30
2011,03,28,00,09,4.30
2011,03,28,00,10,4.30
2011,03,28,00,11,4.20
2011,03,28,00,12,4.20
2011,03,28,00,13,4.20
2011,03,28,00,14,4.20
2011,03,28,00,15,4.20
2011,03,28,00,16,4.20
2011,03,28,00,17,4.20
2011,03,28,00,18,4.20
2011,03,28,00,19,4.20
2011,03,28,00,20,4.20
2011,03,28,00,21,4.20
2011,03,28,00,22,4.20
2011,03,28,00,23,4.20
2011,03,28,00,24,4.10
2011,03,28,00,25,4.10
2011,03,28,00,26,4.10
2011,03,28,00,27,4.10
2011,03,28,00,28,4.10
2011,03,28,00,29,4.10
2011,03,28,00,30,4.10
2011,03,28,00,31,4.10
2011,03,28,00,32,4.10
2011,03,28,00,33,4.10
2011,03,28,00,34,4.10
2011,03,28,00,35,4.10
2011,03,28,00,36,4.10
2011,03,28,00,37,4.10
2011,03,28,00,38,4.10
2011,03,28,00,39,4.10
2011,03,28,00,40,4.10
2011,03,28,00,41,4.10
2011,03,28,00,42,4.10
2011,03,28,00,43,4.10
2011,03,28,00,44,4.10
2011,03,28,00,45,4.10
2011,03,28,00,46,4.10
2011,03,28,00,47,4.10
2011,03,28,00,48,4.10
2011,03,28,00,49,4.00
2011,03,28,00,50,4.00
2011,03,28,00,51,4.00
2011,03,28,00,52,4.00
2011,03,28,00,53,3.90
2011,03,28,00,54,3.90
2011,03,28,00,55,3.90
2011,03,28,00,56,3.80
2011,03,28,00,57,3.80
2011,03,28,00,58,3.80
2011,03,28,00,59,3.80
2011,03,28,01,00,3.80
2011,03,28,01,01,3.80
2011,03,28,01,02,3.80
2011,03,28,01,03,3.80
2011,03,28,01,04,3.80
2011,03,28,01,05,3.80
2011,03,28,01,06,3.80
2011,03,28,01,07,3.80
2011,03,28,01,08,3.80
2011,03,28,01,09,3.80
2011,03,28,01,10,3.80
2011,03,28,01,11,3.80
2011,03,28,01,12,3.70
2011,03,28,01,13,3.70
2011,03,28,01,14,3.70
2011,03,28,01,15,3.70
2011,03,28,01,16,3.70
2011,03,28,01,17,3.70
2011,03,28,01,18,3.80
2011,03,28,01,19,3.80
2011,03,28,01,20,3.80
2011,03,28,01,21,3.80
2011,03,28,01,22,3.80
2011,03,28,01,23,3.80
2011,03,28,01,24,3.80
2011,03,28,01,25,3.80
2011,03,28,01,26,3.80
2011,03,28,01,27,3.80
2011,03,28,01,28,3.80
2011,03,28,01,29,3.80
2011,03,28,01,30,3.80
2011,03,28,01,31,3.90
2011,03,28,01,32,3.90
2011,03,28,01,33,3.90
2011,03,28,01,34,3.90
2011,03,28,01,35,4.00
2011,03,28,01,36,4.00
2011,03,28,01,37,4.10
2011,03,28,01,38,4.10
2011,03,28,01,39,4.10
2011,03,28,01,40,4.20
2011,03,28,01,41,4.20
2011,03,28,01,42,4.20
2011,03,28,01,43,4.20
2011,03,28,01,44,4.20
2011,03,28,01,45,4.20
2011,03,28,01,46,4.20
2011,03,28,01,47,4.20
2011,03,28,01,48,4.20
2011,03,28,01,49,4.20
2011,03,28,01,50,4.20
2011,03,28,01,51,4.20
2011,03,28,01,52,4.20
2011,03,28,01,53,4.20
2011,03,28,01,54,4.20
2011,03,28,01,55,4.20
2011,03,28,01,56,4.20
2011,03,28,01,57,4.20
2011,03,28,01,58,4.30
2011,03,28,01,59,4.30
2011,03,28,02,00,4.30
2011,03,28,02,01,4.30
2011,03,28,02,02,4.30
2011,03,28,02,03,4.30
2011,03,28,02,04,4.30
2011,03,28,02,05,4.30
2011,03,28,02,06,4.30
2011,03,28,02,07,4.40
2011,03,28,02,08,4.40
2011,03,28,02,09,4.50
2011,03,28,02,10,4.50
2011,03,28,02,11,4.60
2011,03,28,02,12,4.60
2011,03,28,02,13,4.60
2011,03,28,02,14,4.60
2011,03,28,02,15,4.70
2011,03,28,02,16,4.80
2011,03,28,02,17,4.90
2011,03,28,02,18,5.00
2011,03,28,02,19,5.10
2011,03,28,02,20,5.20
2011,03,28,02,21,5.30
2011,03,28,02,22,5.40
2011,03,28,02,23,5.50
2011,03,28,02,24,5.50
2011,03,28,02,25,5.60
2011,03,28,02,26,5.60
2011,03,28,02,27,5.70
2011,03,28,02,28,5.70
2011,03,28,02,29,5.70
2011,03,28,02,30,5.80
2011,03,28,02,31,5.80
2011,03,28,02,32,5.90
2011,03,28,02,33,6.00
2011,03,28,02,34,6.00
2011,03,28,02,35,6.10
2011,03,28,02,36,6.20
2011,03,28,02,37,6.20
2011,03,28,02,38,6.20
2011,03,28,02,39,6.10
2011,03,28,02,40,6.10
2011,03,28,02,41,6.10
2011,03,28,02,42,6.10
2011,03,28,02,43,6.20
2011,03,28,02,44,6.20
2011,03,28,02,45,6.20
2011,03,28,02,46,6.20
2011,03,28,02,47,6.20
2011,03,28,02,48,6.20
2011,03,28,02,49,6.20
2011,03,28,02,50,6.20
2011,03,28,02,51,6.10
2011,03,28,02,52,6.10
2011,03,28,02,53,6.10
2011,03,28,02,54,6.10
2011,03,28,02,55,6.10
2011,03,28,02,56,6.20
2011,03,28,02,57,6.20
2011,03,28,02,58,6.20
2011,03,28,02,59,6.20
2011,03,28,03,00,6.20
2011,03,28,03,01,6.20
2011,03,28,03,02,6.20
2011,03,28,03,03,6.20
2011,03,28,03,04,6.20
2011,03,28,03,05,6.20
2011,03,28,03,06,6.20
2011,03,28,03,07,6.20
2011,03,28,03,08,6.20
2011,03,28,03,09,6.30
2011,03,28,03,10,6.30
2011,03,28,03,11,6.30
2011,03,28,03,12,6.30
2011,03,28,03,13,6.30
2011,03,28,03,14,6.30
2011,03,28,03,15,6.30
2011,03,28,03,16,6.30
2011,03,28,03,17,6.30
2011,03,28,03,18,6.30
2011,03,28,03,19,6.30
2011,03,28,03,20,6.30
2011,03,28,03,21,6.30
2011,03,28,03,22,6.30
2011,03,28,03,23,6.30
2011,03,28,03,24,6.20
2011,03,28,03,25,6.20
2011,03,28,03,26,6.20
2011,03,28,03,27,6.10
2011,03,28,03,28,6.00
2011,03,28,03,29,6.00
2011,03,28,03,30,5.90
2011,03,28,03,31,5.80
2011,03,28,03,32,5.80
2011,03,28,03,33,5.70
2011,03,28,03,34,5.70
2011,03,28,03,35,5.60
2011,03,28,03,36,5.60
2011,03,28,03,37,5.50
2011,03,28,03,38,5.40
2011,03,28,03,39,5.40
2011,03,28,03,40,5.30
2011,03,28,03,41,5.20
2011,03,28,03,42,5.10
2011,03,28,03,43,5.10
2011,03,28,03,44,5.10
2011,03,28,03,45,5.00
2011,03,28,03,46,4.90
2011,03,28,03,47,4.80
2011,03,28,03,48,4.80
2011,03,28,03,49,4.70
2011,03,28,03,50,4.60
2011,03,28,03,51,4.60
2011,03,28,03,52,4.50
2011,03,28,03,53,4.50
2011,03,28,03,54,4.40
2011,03,28,03,55,4.40
2011,03,28,03,56,4.30
2011,03,28,03,57,4.20
2011,03,28,03,58,4.20
2011,03,28,03,59,4.20
2011,03,28,04,00,4.10
2011,03,28,04,01,4.10
2011,03,28,04,02,4.10
2011,03,28,04,03,4.00
2011,03,28,04,04,4.00
2011,03,28,04,05,4.00
2011,03,28,04,06,3.90
2011,03,28,04,07,3.90
2011,03,28,04,08,3.80
2011,03,28,04,09,3.80
2011,03,28,04,10,3.80
2011,03,28,04,11,3.80
2011,03,28,04,12,3.80
2011,03,28,04,13,3.80
2011,03,28,04,14,3.80
2011,03,28,04,15,3.80
2011,03,28,04,16,3.80
2011,03,28,04,17,3.70
2011,03,28,04,18,3.70
2011,03,28,04,19,3.70
2011,03,28,04,20,3.60
2011,03,28,04,21,3.60
2011,03,28,04,22,3.60
2011,03,28,04,23,3.60
2011,03,28,04,24,3.50
2011,03,28,04,25,3.50
2011,03,28,04,26,3.50
2011,03,28,04,27,3.50
2011,03,28,04,28,3.40
2011,03,28,04,29,3.40
2011,03,28,04,30,3.30
2011,03,28,04,31,3.30
2011,03,28,04,32,3.30
2011,03,28,04,33,3.20
2011,03,28,04,34,3.20
2011,03,28,04,35,3.10
2011,03,28,04,36,3.10
2011,03,28,04,37,3.10
2011,03,28,04,38,3.10
2011,03,28,04,39,3.00
2011,03,28,04,40,2.90
2011,03,28,04,41,2.90
2011,03,28,04,42,2.90
2011,03,28,04,43,2.90
2011,03,28,04,44,2.90
2011,03,28,04,45,2.90
2011,03,28,04,46,2.90
2011,03,28,04,47,2.90
2011,03,28,04,48,2.90
2011,03,28,04,49,2.90
2011,03,28,04,50,2.80
2011,03,28,04,51,2.80
2011,03,28,04,52,2.80
2011,03,28,04,53,2.80
2011,03,28,04,54,2.80
2011,03,28,04,55,2.70
2011,03,28,04,56,2.70
2011,03,28,04,57,2.70
2011,03,28,04,58,2.70
2011,03,28,04,59,2.60
2011,03,28,05,00,2.60
2011,03,28,05,01,2.60
2011,03,28,05,02,2.50
2011,03,28,05,03,2.50
2011,03,28,05,04,2.50
2011,03,28,05,05,2.50
2011,03,28,05,06,2.50
2011,03,28,05,07,2.50
2011,03,28,05,08,2.40
2011,03,28,05,09,2.40
2011,03,28,05,10,2.40
2011,03,28,05,11,2.40
2011,03,28,05,12,2.30
2011,03,28,05,13,2.30
2011,03,28,05,14,2.30
2011,03,28,05,15,2.30
2011,03,28,05,16,2.30
2011,03,28,05,17,2.20
2011,03,28,05,18,2.20
2011,03,28,05,19,2.20
2011,03,28,05,20,2.20
2011,03,28,05,21,2.20
2011,03,28,05,22,2.20
2011,03,28,05,23,2.10
2011,03,28,05,24,2.10
2011,03,28,05,25,2.10
2011,03,28,05,26,2.10
2011,03,28,05,27,2.00
2011,03,28,05,28,2.00
2011,03,28,05,29,2.00
2011,03,28,05,30,1.90
2011,03,28,05,31,1.90
2011,03,28,05,32,1.90
2011,03,28,05,33,1.90
2011,03,28,05,34,1.80
2011,03,28,05,35,1.80
2011,03,28,05,36,1.80
2011,03,28,05,37,1.80
2011,03,28,05,38,1.80
2011,03,28,05,39,1.80
2011,03,28,05,40,1.80
2011,03,28,05,41,1.80
2011,03,28,05,42,1.80
2011,03,28,05,43,1.80
2011,03,28,05,44,1.70
2011,03,28,05,45,1.70
2011,03,28,05,46,1.70
2011,03,28,05,47,1.70
2011,03,28,05,48,1.70
2011,03,28,05,49,1.60
2011,03,28,05,50,1.60
2011,03,28,05,51,1.60
2011,03,28,05,52,1.60
2011,03,28,05,53,1.60
2011,03,28,05,54,1.60
2011,03,28,05,55,1.60
2011,03,28,05,56,1.60
2011,03,28,05,57,1.60
2011,03,28,05,58,1.60
2011,03,28,05,59,1.60
2011,03,28,06,00,1.60
2011,03,28,06,01,1.60
2011,03,28,06,02,1.60
2011,03,28,06,03,1.50
2011,03,28,06,04,1.50
2011,03,28,06,05,1.50
2011,03,28,06,06,1.50
2011,03,28,06,07,1.50
2011,03,28,06,08,1.50
2011,03,28,06,09,1.40
2011,03,28,06,10,1.40
2011,03,28,06,11,1.40
2011,03,28,06,12,1.40
2011,03,28,06,13,1.40
2011,03,28,06,14,1.30
2011,03,28,06,15,1.30
2011,03,28,06,16,1.30
2011,03,28,06,17,1.30
2011,03,28,06,18,1.30
2011,03,28,06,19,1.30
2011,03,28,06,20,1.30
2011,03,28,06,21,1.30
2011,03,28,06,22,1.30
2011,03,28,06,23,1.30
2011,03,28,06,24,1.30
2011,03,28,06,25,1.30
2011,03,28,06,26,1.30
2011,03,28,06,27,1.30
2011,03,28,06,28,1.30
2011,03,28,06,29,1.30
2011,03,28,06,30,1.30
2011,03,28,06,31,1.30
2011,03,28,06,32,1.30
2011,03,28,06,33,1.30
2011,03,28,06,34,1.30
2011,03,28,06,35,1.30
2011,03,28,06,36,1.30
2011,03,28,06,37,1.20
2011,03,28,06,38,1.20
2011,03,28,06,39,1.20
2011,03,28,06,40,1.20
2011,03,28,06,41,1.20
2011,03,28,06,42,1.20
2011,03,28,06,43,1.10
2011,03,28,06,44,1.10
2011,03,28,06,45,1.10
2011,03,28,06,46,1.10
2011,03,28,06,47,1.10
2011,03,28,06,48,1.10
2011,03,28,06,49,1.10
2011,03,28,06,50,1.10
2011,03,28,06,51,1.10
2011,03,28,06,52,1.10
2011,03,28,06,53,1.00
2011,03,28,06,54,1.00
2011,03,28,06,55,1.00
2011,03,28,06,56,1.00
2011,03,28,06,57,1.00
2011,03,28,06,58,0.90
2011,03,28,06,59,0.90
2011,03,28,07,00,0.90
2011,03,28,07,01,0.90
2011,03,28,07,02,0.90
2011,03,28,07,03,0.90
2011,03,28,07,04,0.90
2011,03,28,07,05,0.90
2011,03,28,07,06,0.80
2011,03,28,07,07,0.80
2011,03,28,07,08,0.80
2011,03,28,07,09,0.80
2011,03,28,07,10,0.80
2011,03,28,07,11,0.80
2011,03,28,07,12,0.80
2011,03,28,07,13,0.80
2011,03,28,07,14,0.80
2011,03,28,07,15,0.80
2011,03,28,07,16,0.80
2011,03,28,07,17,0.80
2011,03,28,07,18,0.80
2011,03,28,07,19,0.80
2011,03,28,07,20,0.80
2011,03,28,07,21,0.80
2011,03,28,07,22,0.80
2011,03,28,07,23,0.80
2011,03,28,07,24,0.80
2011,03,28,07,25,0.80
2011,03,28,07,26,0.80
2011,03,28,07,27,0.70
2011,03,28,07,28,0.70
2011,03,28,07,29,0.70
2011,03,28,07,30,0.70
2011,03,28,07,31,0.70
2011,03,28,07,32,0.70
2011,03,28,07,33,0.60
2011,03,28,07,34,0.60
2011,03,28,07,35,0.60
2011,03,28,07,36,0.60
2011,03,28,07,37,0.60
2011,03,28,07,38,0.60
2011,03,28,07,39,0.60
2011,03,28,07,40,0.60
2011,03,28,07,41,0.60
2011,03,28,07,42,0.60
2011,03,28,07,43,0.60
2011,03,28,07,44,0.70
2011,03,28,07,45,0.70
2011,03,28,07,46,0.70
2011,03,28,07,47,0.70
2011,03,28,07,48,0.70
2011,03,28,07,49,0.80
2011,03,28,07,50,0.80
2011,03,28,07,51,0.80
2011,03,28,07,52,0.80
2011,03,28,07,53,0.80
2011,03,28,07,54,0.80
2011,03,28,07,55,0.80
2011,03,28,07,56,0.80
2011,03,28,07,57,0.80
2011,03,28,07,58,0.80
2011,03,28,07,59,0.80
2011,03,28,08,00,0.80
2011,03,28,08,01,0.80
2011,03,28,08,02,0.80
2011,03,28,08,03,0.80
2011,03,28,08,04,0.80
2011,03,28,08,05,0.80
2011,03,28,08,06,0.80
2011,03,28,08,07,0.80
2011,03,28,08,08,0.80
2011,03,28,08,09,0.90
2011,03,28,08,10,0.90
2011,03,28,08,11,0.90
2011,03,28,08,12,0.90
2011,03,28,08,13,0.90
2011,03,28,08,14,0.90
2011,03,28,08,15,0.90
2011,03,28,08,16,1.00
2011,03,28,08,17,1.00
2011,03,28,08,18,1.00
2011,03,28,08,19,1.00
2011,03,28,08,20,1.00
2011,03,28,08,21,1.00
2011,03,28,08,22,1.10
2011,03,28,08,23,1.10
2011,03,28,08,24,1.10
2011,03,28,08,25,1.20
2011,03,28,08,26,1.20
2011,03,28,08,27,1.20
2011,03,28,08,28,1.30
2011,03,28,08,29,1.30
2011,03,28,08,30,1.30
2011,03,28,08,31,1.30
2011,03,28,08,32,1.30
2011,03,28,08,33,1.40
2011,03,28,08,34,1.40
2011,03,28,08,35,1.40
2011,03,28,08,36,1.40
2011,03,28,08,37,1.50
2011,03,28,08,38,1.50
2011,03,28,08,39,1.50
2011,03,28,08,40,1.50
2011,03,28,08,41,1.60
2011,03,28,08,42,1.60
2011,03,28,08,43,1.60
2011,03,28,08,44,1.70
2011,03,28,08,45,1.70
2011,03,28,08,46,1.80
2011,03,28,08,47,1.80
2011,03,28,08,48,1.80
2011,03,28,08,49,1.90
2011,03,28,08,50,1.90
2011,03,28,08,51,2.00
2011,03,28,08,52,2.00
2011,03,28,08,53,2.10
2011,03,28,08,54,2.10
2011,03,28,08,55,2.20
2011,03,28,08,56,2.20
2011,03,28,08,57,2.30
2011,03,28,08,58,2.30
2011,03,28,08,59,2.40
2011,03,28,09,00,2.40
2011,03,28,09,01,2.50
2011,03,28,09,02,2.50
2011,03,28,09,03,2.60
2011,03,28,09,04,2.70
2011,03,28,09,05,2.70
2011,03,28,09,06,2.80
2011,03,28,09,07,2.80
2011,03,28,09,08,2.90
2011,03,28,09,09,2.90
2011,03,28,09,10,2.90
2011,03,28,09,11,3.10
2011,03,28,09,12,3.10
2011,03,28,09,13,3.10
2011,03,28,09,14,3.20
2011,03,28,09,15,3.20
2011,03,28,09,16,3.30
2011,03,28,09,17,3.30
2011,03,28,09,18,3.40
2011,03,28,09,19,3.40
2011,03,28,09,20,3.50
2011,03,28,09,21,3.60
2011,03,28,09,22,3.60
2011,03,28,09,23,3.60
2011,03,28,09,24,3.70
2011,03,28,09,25,3.80
2011,03,28,09,26,3.80
2011,03,28,09,27,3.80
2011,03,28,09,28,3.90
2011,03,28,09,29,3.90
2011,03,28,09,30,4.00
2011,03,28,09,31,4.00
2011,03,28,09,32,4.10
2011,03,28,09,33,4.10
2011,03,28,09,34,4.20
2011,03,28,09,35,4.20
2011,03,28,09,36,4.30
2011,03,28,09,37,4.30
2011,03,28,09,38,4.40
2011,03,28,09,39,4.40
2011,03,28,09,40,4.50
2011,03,28,09,41,4.50
2011,03,28,09,42,4.60
2011,03,28,09,43,4.60
2011,03,28,09,44,4.60
2011,03,28,09,45,4.70
2011,03,28,09,46,4.80
2011,03,28,09,47,4.80
2011,03,28,09,48,4.90
2011,03,28,09,49,4.90
2011,03,28,09,50,4.90
2011,03,28,09,51,5.00
2011,03,28,09,52,5.10
2011,03,28,09,53,5.10
2011,03,28,09,54,5.10
2011,03,28,09,55,5.10
2011,03,28,09,56,5.20
2011,03,28,09,57,5.20
2011,03,28,09,58,5.30
2011,03,28,09,59,5.30
2011,03,28,10,00,5.30
2011,03,28,10,01,5.30
2011,03,28,10,02,5.30
2011,03,28,10,03,5.40
2011,03,28,10,04,5.40
2011,03,28,10,05,5.40
2011,03,28,10,06,5.50
2011,03,28,10,07,5.50
2011,03,28,10,08,5.50
2011,03,28,10,09,5.50
2011,03,28,10,10,5.50
2011,03,28,10,11,5.50
2011,03,28,10,12,5.50
2011,03,28,10,13,5.50
2011,03,28,10,14,5.60
2011,03,28,10,15,5.60
2011,03,28,10,16,5.60
2011,03,28,10,17,5.60
2011,03,28,10,18,5.60
2011,03,28,10,19,5.60
2011,03,28,10,20,5.60
2011,03,28,10,21,5.70
2011,03,28,10,22,5.70
2011,03,28,10,23,5.70
2011,03,28,10,24,5.70
2011,03,28,10,25,5.70
2011,03,28,10,26,5.70
2011,03,28,10,27,5.70
2011,03,28,10,28,5.70
2011,03,28,10,29,5.80
2011,03,28,10,30,5.80
2011,03,28,10,31,5.80
2011,03,28,10,32,5.90
2011,03,28,10,33,5.90
2011,03,28,10,34,5.90
2011,03,28,10,35,6.00
2011,03,28,10,36,6.00
2011,03,28,10,37,6.00
2011,03,28,10,38,6.00
2011,03,28,10,39,6.00
2011,03,28,10,40,6.10
2011,03,28,10,41,6.10
2011,03,28,10,42,6.10
2011,03,28,10,43,6.10
2011,03,28,10,44,6.20
2011,03,28,10,45,6.20
2011,03,28,10,46,6.20
2011,03,28,10,47,6.20
2011,03,28,10,48,6.20
2011,03,28,10,49,6.20
2011,03,28,10,50,6.20
2011,03,28,10,51,6.20
2011,03,28,10,52,6.30
2011,03,28,10,53,6.30
2011,03,28,10,54,6.30
2011,03,28,10,55,6.40
2011,03,28,10,56,6.40
2011,03,28,10,57,6.40
2011,03,28,10,58,6.40
2011,03,28,10,59,6.40
2011,03,28,11,00,6.40
2011,03,28,11,01,6.50
2011,03,28,11,02,6.60
2011,03,28,11,03,6.60
2011,03,28,11,04,6.60
2011,03,28,11,05,6.60
2011,03,28,11,06,6.60
2011,03,28,11,07,6.60
2011,03,28,11,08,6.60
2011,03,28,11,09,6.60
2011,03,28,11,10,6.60
2011,03,28,11,11,6.70
2011,03,28,11,12,6.70
2011,03,28,11,13,6.70
2011,03,28,11,14,6.80
2011,03,28,11,15,6.80
2011,03,28,11,16,6.80
2011,03,28,11,17,6.80
2011,03,28,11,18,6.80
2011,03,28,11,19,6.90
2011,03,28,11,20,6.90
2011,03,28,11,21,6.90
2011,03,28,11,22,6.90
2011,03,28,11,23,6.80
2011,03,28,11,24,6.80
2011,03,28,11,25,6.80
2011,03,28,11,26,6.80
2011,03,28,11,27,6.80
2011,03,28,11,28,6.80
2011,03,28,11,29,6.90
2011,03,28,11,30,6.90
2011,03,28,11,31,6.90
2011,03,28,11,32,6.90
2011,03,28,11,33,6.90
2011,03,28,11,34,7.00
2011,03,28,11,35,7.00
2011,03,28,11,36,7.00
2011,03,28,11,37,7.10
2011,03,28,11,38,7.10
2011,03,28,11,39,7.10
2011,03,28,11,40,7.20
2011,03,28,11,41,7.20
2011,03,28,11,42,7.30
2011,03,28,11,43,7.30
2011,03,28,11,44,7.30
2011,03,28,11,45,7.30
2011,03,28,11,46,7.30
2011,03,28,11,47,7.30
2011,03,28,11,48,7.40
2011,03,28,11,49,7.40
2011,03,28,11,50,7.40
2011,03,28,11,51,7.40
2011,03,28,11,52,7.40
2011,03,28,11,53,7.50
2011,03,28,11,54,7.50
2011,03,28,11,55,7.50
2011,03,28,11,56,7.50
2011,03,28,11,57,7.50
2011,03,28,11,58,7.60
2011,03,28,11,59,7.60
2011,03,28,12,00,7.60
2011,03,28,12,01,7.60
2011,03,28,12,02,7.70
2011,03,28,12,03,7.70
2011,03,28,12,04,7.80
2011,03,28,12,05,7.80
2011,03,28,12,06,7.80
2011,03,28,12,07,7.80
2011,03,28,12,08,7.80
2011,03,28,12,09,7.90
2011,03,28,12,10,7.90
2011,03,28,12,11,8.00
2011,03,28,12,12,8.00
2011,03,28,12,13,8.00
2011,03,28,12,14,8.10
2011,03,28,12,15,8.10
2011,03,28,12,16,8.10
2011,03,28,12,17,8.20
2011,03,28,12,18,8.20
2011,03,28,12,19,8.20
2011,03,28,12,20,8.30
2011,03,28,12,21,8.30
2011,03,28,12,22,8.40
2011,03,28,12,23,8.40
2011,03,28,12,24,8.50
2011,03,28,12,25,8.50
2011,03,28,12,26,8.60
2011,03,28,12,27,8.60
2011,03,28,12,28,8.70
2011,03,28,12,29,8.70
2011,03,28,12,30,8.70
2011,03,28,12,31,8.70
2011,03,28,12,32,8.70
2011,03,28,12,33,8.80
2011,03,28,12,34,8.80
2011,03,28,12,35,8.80
2011,03,28,12,36,8.80
2011,03,28,12,37,8.90
2011,03,28,12,38,8.90
2011,03,28,12,39,8.90
2011,03,28,12,40,9.00
2011,03,28,12,41,9.00
2011,03,28,12,42,9.10
2011,03,28,12,43,9.20
2011,03,28,12,44,9.20
2011,03,28,12,45,9.20
2011,03,28,12,46,9.30
2011,03,28,12,47,9.40
2011,03,28,12,48,9.40
2011,03,28,12,49,9.50
2011,03,28,12,50,9.50
2011,03,28,12,51,9.60
2011,03,28,12,52,9.60
2011,03,28,12,53,9.70
2011,03,28,12,54,9.70
2011,03,28,12,55,9.70
2011,03,28,12,56,9.70
2011,03,28,12,57,9.70
2011,03,28,12,58,9.70
2011,03,28,12,59,9.70
2011,03,28,13,00,9.70
2011,03,28,13,01,9.70
2011,03,28,13,02,9.70
2011,03,28,13,03,9.70
2011,03,28,13,04,9.70
2011,03,28,13,05,9.70
2011,03,28,13,06,9.70
2011,03,28,13,07,9.70
2011,03,28,13,08,9.70
2011,03,28,13,09,9.70
2011,03,28,13,10,9.70
2011,03,28,13,11,9.70
2011,03,28,13,12,9.80
2011,03,28,13,13,9.80
2011,03,28,13,14,9.80
2011,03,28,13,15,9.90
2011,03,28,13,16,9.90
2011,03,28,13,17,9.90
2011,03,28,13,18,9.90
2011,03,28,13,19,9.90
2011,03,28,13,20,9.90
2011,03,28,13,21,9.90
2011,03,28,13,22,9.90
2011,03,28,13,23,9.90
2011,03,28,13,24,9.90
2011,03,28,13,25,9.90
2011,03,28,13,26,9.90
2011,03,28,13,27,9.90
2011,03,28,13,28,9.90
2011,03,28,13,29,9.90
2011,03,28,13,30,9.90
2011,03,28,13,31,9.90
2011,03,28,13,32,9.90
2011,03,28,13,33,9.90
2011,03,28,13,34,9.90
2011,03,28,13,35,9.90
2011,03,28,13,36,9.90
2011,03,28,13,37,9.90
2011,03,28,13,38,9.90
2011,03,28,13,39,9.90
2011,03,28,13,40,9.90
2011,03,28,13,41,9.90
2011,03,28,13,42,9.90
2011,03,28,13,43,9.90
2011,03,28,13,44,9.90
2011,03,28,13,45,9.90
2011,03,28,13,46,9.90
2011,03,28,13,47,9.90
2011,03,28,13,48,9.90
2011,03,28,13,49,9.90
2011,03,28,13,50,9.90
2011,03,28,13,51,9.90
2011,03,28,13,52,9.90
2011,03,28,13,53,9.90
2011,03,28,13,54,9.90
2011,03,28,13,55,9.90
2011,03,28,13,56,9.90
2011,03,28,13,57,9.90
2011,03,28,13,58,9.90
2011,03,28,13,59,9.90
2011,03,28,14,00,9.90
2011,03,28,14,01,9.90
2011,03,28,14,02,9.90
2011,03,28,14,03,9.90
2011,03,28,14,04,9.90
2011,03,28,14,05,9.90
2011,03,28,14,06,9.90
2011,03,28,14,07,9.90
2011,03,28,14,08,9.90
2011,03,28,14,09,9.90
2011,03,28,14,10,9.90
2011,03,28,14,11,9.90
2011,03,28,14,12,9.90
2011,03,28,14,13,9.90
2011,03,28,14,14,10.00
2011,03,28,14,15,10.10
2011,03,28,14,16,10.10
2011,03,28,14,17,10.10
2011,03,28,14,18,10.10
2011,03,28,14,19,10.10
2011,03,28,14,20,10.10
2011,03,28,14,21,10.10
2011,03,28,14,22,10.10
2011,03,28,14,23,10.10
2011,03,28,14,24,10.10
2011,03,28,14,25,10.10
2011,03,28,14,26,10.10
2011,03,28,14,27,10.10
2011,03,28,14,28,10.10
2011,03,28,14,29,10.10
2011,03,28,14,30,10.10
2011,03,28,14,31,10.00
2011,03,28,14,32,9.90
2011,03,28,14,33,9.90
2011,03,28,14,34,9.90
2011,03,28,14,35,9.90
2011,03,28,14,36,9.90
2011,03,28,14,37,9.90
2011,03,28,14,38,9.90
2011,03,28,14,39,9.90
2011,03,28,14,40,9.90
2011,03,28,14,41,9.90
2011,03,28,14,42,9.90
2011,03,28,14,43,10.00
2011,03,28,14,44,10.10
2011,03,28,14,45,10.10
2011,03,28,14,46,10.10
2011,03,28,14,47,10.10
2011,03,28,14,48,10.10
2011,03,28,14,49,10.10
2011,03,28,14,50,10.20
2011,03,28,14,51,10.20
2011,03,28,14,52,10.20
2011,03,28,14,53,10.30
2011,03,28,14,54,10.30
2011,03,28,14,55,10.30
2011,03,28,14,56,10.30
2011,03,28,14,57,10.30
2011,03,28,14,58,10.30
2011,03,28,14,59,10.30
2011,03,28,15,00,10.30
2011,03,28,15,01,10.20
2011,03,28,15,02,10.20
2011,03,28,15,03,10.20
2011,03,28,15,04,10.20
2011,03,28,15,05,10.10
2011,03,28,15,06,10.10
2011,03,28,15,07,10.10
2011,03,28,15,08,10.10
2011,03,28,15,09,10.10
2011,03,28,15,10,10.10
2011,03,28,15,11,10.10
2011,03,28,15,12,10.10
2011,03,28,15,13,10.10
2011,03,28,15,14,10.10
2011,03,28,15,15,10.10
2011,03,28,15,16,10.10
2011,03,28,15,17,9.90
2011,03,28,15,18,9.90
2011,03,28,15,19,9.90
2011,03,28,15,20,9.90
2011,03,28,15,21,9.90
2011,03,28,15,22,9.90
2011,03,28,15,23,9.90
2011,03,28,15,24,9.90
2011,03,28,15,25,9.90
2011,03,28,15,26,9.90
2011,03,28,15,27,9.90
2011,03,28,15,28,9.90
2011,03,28,15,29,9.90
2011,03,28,15,30,9.80
2011,03,28,15,31,9.80
2011,03,28,15,32,9.80
2011,03,28,15,33,9.80
2011,03,28,15,34,9.80
2011,03,28,15,35,9.70
2011,03,28,15,36,9.70
2011,03,28,15,37,9.70
2011,03,28,15,38,9.70
2011,03,28,15,39,9.70
2011,03,28,15,40,9.70
2011,03,28,15,41,9.70
2011,03,28,15,42,9.70
2011,03,28,15,43,9.70
2011,03,28,15,44,9.70
2011,03,28,15,45,9.70
2011,03,28,15,46,9.70
2011,03,28,15,47,9.70
2011,03,28,15,48,9.70
2011,03,28,15,49,9.70
2011,03,28,15,50,9.70
2011,03,28,15,51,9.70
2011,03,28,15,52,9.70
2011,03,28,15,53,9.70
2011,03,28,15,54,9.70
2011,03,28,15,55,9.70
2011,03,28,15,56,9.70
2011,03,28,15,57,9.70
2011,03,28,15,58,9.70
2011,03,28,15,59,9.70
2011,03,28,16,00,9.70
2011,03,28,16,01,9.70
2011,03,28,16,02,9.70
2011,03,28,16,03,9.70
2011,03,28,16,04,9.70
2011,03,28,16,05,9.70
2011,03,28,16,06,9.80
2011,03,28,16,07,9.80
2011,03,28,16,08,9.80
2011,03,28,16,09,9.80
2011,03,28,16,10,9.90
2011,03,28,16,11,9.90
2011,03,28,16,12,9.90
2011,03,28,16,13,9.90
2011,03,28,16,14,9.90
2011,03,28,16,15,9.90
2011,03,28,16,16,9.90
2011,03,28,16,17,9.90
2011,03,28,16,18,10.10
2011,03,28,16,19,10.10
2011,03,28,16,20,10.10
2011,03,28,16,21,10.10
2011,03,28,16,22,10.10
2011,03,28,16,23,10.10
2011,03,28,16,24,10.10
2011,03,28,16,25,10.10
2011,03,28,16,26,10.10
2011,03,28,16,27,10.20
2011,03,28,16,28,10.20
2011,03,28,16,29,10.10
2011,03,28,16,30,10.10
2011,03,28,16,31,10.10
2011,03,28,16,32,10.10
2011,03,28,16,33,10.10
2011,03,28,16,34,10.10
2011,03,28,16,35,10.10
2011,03,28,16,36,10.10
2011,03,28,16,37,10.10
2011,03,28,16,38,10.00
2011,03,28,16,39,9.90
2011,03,28,16,40,9.90
2011,03,28,16,41,9.90
2011,03,28,16,42,9.80
2011,03,28,16,43,9.80
2011,03,28,16,44,9.80
2011,03,28,16,45,9.70
2011,03,28,16,46,9.70
2011,03,28,16,47,9.70
2011,03,28,16,48,9.70
2011,03,28,16,49,9.70
2011,03,28,16,50,9.70
2011,03,28,16,51,9.70
2011,03,28,16,52,9.70
2011,03,28,16,53,9.70
2011,03,28,16,54,9.70
2011,03,28,16,55,9.70
2011,03,28,16,56,9.70
2011,03,28,16,57,9.70
2011,03,28,16,58,9.70
2011,03,28,16,59,9.70
2011,03,28,17,00,9.70
2011,03,28,17,01,9.70
2011,03,28,17,02,9.60
2011,03,28,17,03,9.60
2011,03,28,17,04,9.60
2011,03,28,17,05,9.60
2011,03,28,17,06,9.50
2011,03,28,17,07,9.50
2011,03,28,17,08,9.50
2011,03,28,17,09,9.50
2011,03,28,17,10,9.40
2011,03,28,17,11,9.40
2011,03,28,17,12,9.40
2011,03,28,17,13,9.40
2011,03,28,17,14,9.30
2011,03,28,17,15,9.30
2011,03,28,17,16,9.30
2011,03,28,17,17,9.30
2011,03,28,17,18,9.30
2011,03,28,17,19,9.20
2011,03,28,17,20,9.20
2011,03,28,17,21,9.20
2011,03,28,17,22,9.20
2011,03,28,17,23,9.20
2011,03,28,17,24,9.10
2011,03,28,17,25,9.00
2011,03,28,17,26,9.00
2011,03,28,17,27,8.90
2011,03,28,17,28,8.90
2011,03,28,17,29,8.90
2011,03,28,17,30,8.80
2011,03,28,17,31,8.80
2011,03,28,17,32,8.70
2011,03,28,17,33,8.60
2011,03,28,17,34,8.60
2011,03,28,17,35,8.50
2011,03,28,17,36,8.50
2011,03,28,17,37,8.40
2011,03,28,17,38,8.30
2011,03,28,17,39,8.30
2011,03,28,17,40,8.20
2011,03,28,17,41,8.20
2011,03,28,17,42,8.20
2011,03,28,17,43,8.10
2011,03,28,17,44,8.10
2011,03,28,17,45,8.00
2011,03,28,17,46,8.00
2011,03,28,17,47,7.90
2011,03,28,17,48,7.90
2011,03,28,17,49,7.90
2011,03,28,17,50,7.80
2011,03,28,17,51,7.80
2011,03,28,17,52,7.80
2011,03,28,17,53,7.80
2011,03,28,17,54,7.80
2011,03,28,17,55,7.80
2011,03,28,17,56,7.70
2011,03,28,17,57,7.70
2011,03,28,17,58,7.70
2011,03,28,17,59,7.70
2011,03,28,18,00,7.70
2011,03,28,18,01,7.70
2011,03,28,18,02,7.70
2011,03,28,18,03,7.70